Вернуться в каталог

FLOCK 4BE 3

АктивенНаукаSSO
NORAD 60561·PAYLOAD·🇺🇸 United States

Запущен Aug 16, 2024 с Vandenberg Space Force Base

Loading…

Ближайшие Пролёты (ближайшие 24 часа)

TLE

СвежийSource: CelesTrak SupGP

Эпоха: Sep 14, 2026, 14:44 UTC

1 60561C 24149AJ  26257.61416667  .00046956  00000+0  10115-2 0  2573
2 60561  97.3641 342.5328 0002607 333.2622 214.3958 15.44594301    12

Отслеживайте FLOCK 4BE 3 в реальном времени с AllMySat

Download on the App Store